Location: Ojai
(34.4480°N, 119.2420°W)
Time: 15:10:41
(UTC-07:00)

Tiangong 2 - Visible Passes

Search period start: 17 October 2018 00:00
Search period end: 27 October 2018 00:00
Orbit: 384 x 393 km, 42.8° (Epoch: 17 October)

Date Brightness Start Highest point End Pass type
(mag) Time Alt. Az. Time Alt. Az. Time Alt. Az.
17 Oct 1.8 05:36:30 40° N 05:37:04 45° NNE 05:40:09 10° E visible
18 Oct 4.6 04:41:12 12° E 04:41:12 12° E 04:41:29 10° E visible
18 Oct 1.5 06:13:31 19° WNW 06:15:33 47° SSW 06:18:37 10° SE visible
19 Oct 2.4 05:18:19 39° ESE 05:18:19 39° ESE 05:20:26 10° ESE visible
20 Oct 2.6 05:55:31 22° SW 05:55:32 22° SW 05:58:06 10° SSE visible
25 Oct 3.1 19:11:46 10° S 19:13:42 15° SE 19:13:54 15° SE visible
26 Oct 2.2 19:48:43 10° SW 19:50:55 40° SW 19:50:55 40° SW visible
